Wind_Speed
14 15 16 17 18 20 21 22 23 24 23 23 22 21 20 19 18 17 16 15 15 15 15 15 15 16 16 16 16 16 16 16 16 15 14 13 12 12 12 13 13 13 12 12 11 11 11 11 12 13 13 13 13 12 11 11 11 10 10 10 9 8 10 12 16 20 20 18 18 18 16 16 18 17 17 18 19 18 18 19 20 22 23 25 26
15 17 19 20 22 23 24 24 24 24 23 22 21 20 19 18 16 15 14 14 14 14 15 15 15 15 16 16 16 16 16 17 16 16 16 15 14 13 13 13 13 13 13 12 12 12 12 12 12 12 13 13 14 14 13 12 12 12 11 11 10 8 9 11 14 17 19 17 16 15 13 13 16 16 15 18 21 21 20 20 20 21 21 22 24
16 18 20 22 23 24 24 24 23 23 22 21 20 19 18 17 16 15 14 14 13 13 14 14 14 15 15 15 15 15 16 16 16 16 16 16 16 15 15 14 14 14 14 14 13 13 13 13 13 13 13 13 14 14 14 13 12 12 12 11 11 11 10 11 13 15 17 17 16 16 14 12 14 15 15 17 19 21 22 22 21 21 21 21 22
17 19 20 22 23 23 23 23 23 22 21 20 19 18 17 16 15 15 14 14 13 13 13 13 13 14 13 13 13 13 14 15 16 16 16 17 16 16 16 15 15 15 15 15 15 14 14 14 14 14 14 13 13 14 14 13 12 12 12 11 12 12 12 12 13 14 16 18 18 16 15 14 14 14 15 16 17 19 22 23 22 23 23 23 23
17 19 21 22 23 23 23 22 21 20 19 19 18 18 17 16 16 16 15 14 14 13 13 13 13 12 12 12 12 13 13 14 15 15 16 16 15 15 15 15 15 15 15 15 15 14 14 14 14 14 14 14 13 13 13 13 13 12 12 12 12 13 13 13 14 14 15 17 18 16 15 15 14 13 14 15 16 17 20 22 24 24 24 25 25
20 22 22 22 22 21 20 19 19 18 18 18 18 18 18 18 17 17 16 15 14 13 13 13 12 12 13 14 14 13 13 13 14 15 14 14 14 15 16 16 16 15 15 15 14 13 13 13 13 13 13 13 13 13 12 12 13 13 12 13 12 12 13 13 13 14 15 16 17 16 16 15 15 14 13 13 15 15 17 20 22 24 25 25 26
21 21 21 20 19 18 18 17 16 16 17 17 18 18 18 18 18 17 16 15 14 14 13 13 13 13 14 15 14 14 13 13 14 14 13 13 14 15 16 17 17 16 15 16 15 13 12 12 12 12 11 12 12 12 12 12 12 12 12 12 12 12 13 13 13 14 15 15 16 16 15 14 14 14 13 13 14 15 16 17 19 21 23 24 25
19 19 18 17 16 15 15 15 15 15 16 16 16 16 15 16 16 16 15 14 15 15 15 14 13 13 13 13 13 14 15 15 15 15 15 15 16 17 18 18 18 18 17 16 15 15 13 12 12 11 10 10 10 10 10 10 11 11 11 12 12 13 13 13 14 14 14 14 14 15 15 14 13 14 13 13 14 14 14 16 17 18 19 22 24
16 16 15 15 14 14 13 13 14 15 15 15 14 14 13 13 14 14 13 14 15 15 16 15 14 14 14 14 15 16 17 18 18 18 18 18 18 19 20 21 20 20 19 18 17 16 15 14 13 12 12 10 10 10 10 10 11 12 12 12 13 14 14 14 14 14 13 13 13 14 14 14 13 13 13 13 13 13 13 15 17 17 17 19 23
13 12 12 12 12 12 12 14 16 15 14 14 14 13 13 12 12 13 13 14 14 15 17 17 17 17 17 17 17 18 18 18 18 18 18 19 19 19 20 20 21 21 21 21 21 20 19 18 16 15 15 14 13 12 12 13 13 13 13 13 12 14 15 15 15 16 15 14 13 13 14 15 14 13 13 13 13 13 13 14 16 18 17 18 20
10 9 9 10 10 11 13 15 16 15 14 13 13 13 12 12 12 13 14 15 16 16 17 18 18 18 18 18 18 18 18 18 17 17 18 18 19 19 19 19 20 20 21 21 22 22 21 20 19 19 18 17 17 17 16 16 16 15 14 14 14 14 14 15 16 16 17 16 14 13 14 16 16 13 12 13 13 13 13 14 15 16 16 16 18
7 7 8 8 9 10 13 14 14 14 14 13 12 12 12 12 13 14 15 16 17 17 17 17 17 18 17 17 17 17 18 19 19 19 19 19 20 20 20 20 20 20 21 21 20 20 20 19 18 17 17 16 17 18 19 20 20 19 18 17 16 15 15 16 17 17 17 18 16 14 13 14 15 13 11 12 13 13 14 14 14 15 15 15 18
6 6 7 7 8 10 12 12 14 15 14 13 12 12 12 13 14 15 15 16 16 16 16 16 16 16 16 17 17 17 18 20 20 20 20 20 20 20 20 20 20 20 20 20 19 18 17 15 14 14 13 14 16 18 19 21 22 21 21 19 18 17 17 17 17 18 18 19 19 17 14 13 15 15 13 13 14 14 14 14 13 14 15 16 18
4 6 7 7 8 10 11 12 13 15 15 15 14 14 14 14 15 15 15 16 15 15 16 15 16 16 16 17 17 17 18 19 19 19 19 20 19 19 20 20 20 19 18 18 16 13 11 13 14 15 15 16 18 19 19 19 21 21 20 18 16 16 17 16 16 17 18 18 20 19 17 16 18 18 15 14 14 14 14 14 13 13 13 15 18
4 6 7 7 8 10 12 11 11 14 15 15 15 15 15 15 15 15 15 15 15 15 15 15 15 15 16 16 16 17 17 18 18 18 19 19 19 19 19 19 19 17 16 15 12 8 9 14 16 16 16 17 17 17 17 17 18 20 19 16 13 12 13 14 14 15 16 17 19 20 19 18 19 19 18 16 16 15 14 12 12 13 13 14 15
5 7 8 7 8 10 12 10 9 13 15 15 16 16 16 15 15 15 16 16 15 16 15 15 15 15 15 16 16 17 17 17 17 18 19 20 20 19 18 18 17 16 14 13 11 5 7 16 19 15 15 16 15 14 15 15 16 18 18 16 12 10 12 13 13 14 14 15 16 18 19 19 19 18 18 17 17 16 14 12 12 13 14 15 14
6 7 8 8 8 10 12 9 7 12 16 15 15 15 15 16 16 17 17 17 17 17 16 16 16 16 17 18 18 19 18 18 18 20 20 21 20 19 17 16 16 16 13 12 13 7 4 13 21 17 15 16 15 14 14 15 15 15 15 14 12 12 14 15 14 13 11 11 12 13 15 17 17 17 17 17 17 16 14 14 14 14 15 16 16
7 7 9 9 9 11 11 8 7 11 15 16 15 14 14 15 17 17 18 18 18 18 18 18 18 18 19 19 20 20 20 20 21 22 22 23 22 20 18 16 15 15 14 13 15 12 4 7 16 18 16 16 16 15 15 16 16 16 15 14 14 14 15 16 16 13 9 9 10 10 11 13 15 16 17 17 16 14 13 14 14 14 15 16 16
9 9 10 10 11 11 10 8 7 10 14 15 14 13 13 14 16 17 17 18 19 19 18 18 18 19 19 20 20 21 22 22 23 23 24 24 23 20 19 18 16 15 14 12 14 14 10 9 13 15 14 15 15 15 16 17 18 18 18 18 18 17 16 16 16 15 13 13 13 11 8 8 11 13 14 15 15 15 14 14 14 15 15 16 16
11 11 11 11 11 11 10 7 7 10 12 12 10 10 11 12 13 15 17 18 18 18 18 18 18 19 19 20 21 22 23 24 24 25 25 26 25 21 18 19 18 15 14 13 13 14 14 13 13 14 14 15 15 15 16 16 17 18 19 20 20 20 18 17 17 16 16 14 12 11 9 8 9 11 11 12 14 15 16 16 15 15 16 16 16
12 12 11 10 11 11 9 6 7 9 9 9 7 7 10 11 12 13 15 16 17 17 17 18 18 18 18 19 20 21 22 24 25 26 27 27 27 24 20 19 18 14 12 12 13 14 14 15 15 15 15 15 15 15 16 15 16 16 16 17 18 18 18 17 17 17 17 15 12 11 9 8 9 10 11 11 12 13 15 16 15 15 15 16 16
13 12 10 10 11 10 8 7 8 7 6 6 6 7 9 11 12 12 12 14 16 16 16 17 17 17 17 17 18 19 20 22 24 25 27 27 28 27 24 20 17 14 11 11 12 13 13 14 15 15 15 15 15 15 14 14 15 15 15 15 15 15 16 16 16 16 15 14 13 12 11 8 8 9 9 11 11 12 13 14 14 15 15 15 16
13 11 9 9 9 9 8 8 8 6 5 6 7 8 10 12 12 12 11 12 13 14 14 16 17 18 17 16 16 17 18 20 22 24 25 26 27 29 27 23 20 16 12 10 10 11 11 12 14 14 14 14 14 13 13 13 13 13 13 13 14 14 14 14 14 13 12 11 11 11 11 9 8 8 8 10 11 11 12 14 15 16 16 17 17
12 10 9 8 7 7 8 9 9 8 7 7 8 10 11 12 13 13 12 11 12 13 13 15 17 18 18 16 15 16 16 17 19 21 23 24 25 28 29 27 23 20 16 13 10 9 9 10 11 12 12 11 11 11 12 13 13 13 13 13 13 13 13 13 12 10 9 10 10 10 9 8 8 8 9 10 11 11 12 14 14 15 15 15 16
10 9 8 7 6 5 7 8 9 9 8 8 10 10 11 11 12 13 13 11 11 11 12 13 16 18 18 17 16 15 15 16 16 19 21 22 23 25 28 28 26 23 20 17 13 11 8 7 8 10 10 9 10 11 12 14 14 14 14 14 13 13 12 12 12 12 11 11 11 10 10 9 8 8 8 10 11 13 13 13 14 14 15 15 16
8 8 8 7 4 4 5 7 8 9 9 9 10 9 9 11 12 13 13 12 10 11 11 12 15 17 19 19 17 15 14 15 15 16 18 20 20 22 24 27 27 25 23 21 18 14 10 7 6 9 10 11 11 13 14 15 15 15 15 15 15 15 15 14 14 14 14 14 14 13 12 12 11 10 9 9 10 11 12 12 13 14 15 16 16
7 7 7 6 3 2 5 7 8 8 9 10 9 8 8 10 12 13 13 12 11 11 11 11 14 17 19 19 19 17 15 14 14 15 16 18 19 19 21 23 25 25 25 24 22 19 15 9 7 9 11 12 13 13 14 15 16 17 18 19 19 19 18 17 16 15 15 14 14 13 12 12 11 11 9 9 8 9 10 10 10 10 11 12 13
7 7 6 3 2 3 5 7 7 7 8 9 9 7 7 9 12 13 13 12 12 13 13 12 14 17 19 19 20 18 16 15 15 15 16 17 17 18 19 20 22 23 23 23 23 22 18 14 11 10 10 11 12 14 15 16 18 19 20 20 20 20 19 17 16 16 15 15 14 13 12 11 11 10 9 8 8 9 9 9 9 8 8 8 8
8 5 3 4 3 4 5 6 6 6 7 8 8 9 9 9 11 13 13 12 13 13 12 12 14 16 18 19 20 20 19 17 16 15 15 16 16 16 17 18 19 19 19 20 21 22 22 21 19 17 16 15 15 16 17 17 18 19 20 21 21 21 21 20 19 19 19 17 16 15 15 14 12 11 10 9 7 7 8 8 8 8 8 7 6
7 6 6 5 5 5 5 6 6 6 6 6 7 9 9 10 11 13 13 12 11 10 10 11 13 16 18 18 18 18 19 18 16 14 14 14 15 15 16 16 16 16 16 16 18 20 21 22 22 22 22 21 20 19 19 19 19 20 21 21 21 22 23 23 22 22 21 19 18 17 16 16 15 14 13 11 10 9 8 7 7 8 8 7 6
6 6 6 5 6 6 7 7 7 7 6 7 8 9 9 9 10 11 12 12 12 11 11 10 11 15 18 19 18 17 16 16 15 14 14 14 15 15 15 15 15 14 14 14 16 17 18 20 21 21 22 22 22 22 21 20 20 20 21 22 22 23 23 23 23 23 22 20 19 17 16 16 15 15 15 14 13 12 9 7 6 6 7 7 7
5 4 5 6 7 7 7 8 9 9 8 9 9 9 9 9 9 10 11 12 12 13 12 11 11 13 16 19 20 20 19 18 16 15 16 16 16 16 16 15 15 14 13 13 14 16 16 17 18 20 21 21 21 21 21 21 20 21 21 22 23 23 24 24 23 22 22 21 20 19 17 16 15 15 15 15 14 13 11 9 7 6 6 7 8
3 1 3 6 7 7 7 9 10 11 10 9 9 9 9 10 10 11 12 12 13 13 13 12 12 13 15 17 19 21 22 22 20 18 18 18 18 17 16 16 15 15 14 13 14 15 15 15 16 18 20 21 20 20 20 20 21 21 21 22 23 23 23 23 23 22 22 21 20 19 18 16 15 14 13 13 14 13 13 12 10 8 6 6 7
2 2 4 5 6 7 9 10 11 11 11 10 9 8 8 9 11 12 13 14 14 14 14 14 13 14 15 16 18 19 20 21 20 20 20 20 19 18 16 15 15 15 15 14 14 14 14 14 16 17 18 20 20 19 18 19 20 21 21 21 22 23 24 24 23 23 22 21 20 19 18 17 16 14 13 12 12 12 12 12 13 12 10 8 8
5 4 5 6 7 8 10 11 11 12 11 9 8 8 8 9 11 12 13 14 15 15 15 15 15 14 15 15 17 18 19 19 19 19 20 21 20 18 17 15 15 14 14 13 13 13 14 15 16 17 17 18 18 18 17 18 19 21 22 23 24 24 25 25 24 23 22 20 19 19 18 17 16 15 13 12 12 12 11 12 13 13 13 12 11
6 5 6 7 7 8 10 11 12 12 10 8 7 8 9 10 11 12 14 15 16 16 16 16 16 16 16 15 16 17 18 19 19 19 20 21 21 20 18 15 14 13 13 13 13 14 15 15 16 16 16 16 17 17 17 17 19 21 23 24 25 26 26 26 25 23 21 20 18 17 16 16 15 14 13 12 11 11 11 11 12 12 12 13 13
6 7 6 7 8 9 10 11 12 12 9 8 8 9 9 11 12 13 15 17 18 19 20 19 19 18 17 16 15 16 16 17 18 19 21 22 22 21 18 15 13 13 13 14 15 16 16 15 14 14 15 15 16 16 17 18 20 21 23 24 25 26 25 25 24 23 22 20 19 17 15 15 14 14 13 12 11 11 10 10 11 11 11 12 13
7 8 8 9 10 11 10 11 12 12 11 10 10 10 11 13 14 15 17 19 21 23 23 23 23 22 20 17 15 15 15 16 17 19 21 22 21 21 18 14 12 12 13 14 16 17 15 12 12 13 14 15 16 16 17 19 20 21 23 25 25 24 24 23 23 23 22 20 19 17 16 14 13 13 13 12 12 11 10 11 11 11 11 12 12
9 9 9 11 13 13 11 11 12 13 13 12 12 12 13 14 16 17 18 20 21 22 22 23 24 25 22 19 17 16 16 15 16 18 21 21 21 21 18 14 12 12 12 14 16 15 13 11 11 13 14 15 17 18 18 19 20 21 23 24 24 24 24 24 23 23 21 20 18 17 16 15 13 13 12 12 12 11 11 11 11 12 12 13 13
9 10 10 12 13 14 12 11 11 13 13 13 14 14 15 16 18 19 20 21 22 22 22 24 26 25 22 20 19 17 16 15 15 17 20 21 20 20 19 14 12 11 13 15 15 13 11 11 13 14 15 16 17 18 18 19 20 21 22 23 23 24 24 24 23 23 22 20 19 18 17 16 14 13 12 12 12 12 12 11 11 11 12 13 14
11 11 12 12 13 14 13 11 11 12 13 14 15 16 17 19 21 22 22 22 22 23 24 27 26 22 19 18 18 17 16 15 15 17 20 21 20 20 18 14 11 11 13 14 13 11 10 12 14 15 16 16 17 18 19 19 21 22 22 23 23 23 23 23 23 23 22 22 21 20 19 18 16 15 14 12 12 12 12 11 11 11 12 13 14
14 15 15 13 11 13 13 12 11 12 14 15 16 18 20 22 23 23 24 23 22 22 25 26 23 19 17 17 17 17 16 15 14 16 19 20 19 19 17 13 10 11 12 12 11 10 11 13 15 15 15 16 17 18 19 19 20 22 22 22 22 22 23 23 23 23 23 23 23 22 20 19 17 16 15 14 12 12 11 11 11 11 11 12 13
17 17 17 15 13 12 14 13 13 13 15 17 18 19 21 23 24 25 25 24 22 22 24 24 21 19 18 18 16 16 16 14 13 15 18 19 18 18 17 12 10 11 12 11 11 11 12 14 15 14 15 17 18 18 18 19 20 21 21 20 21 21 22 22 23 23 24 24 23 22 21 19 18 16 15 14 13 12 11 11 11 11 11 11 12
19 18 17 15 12 12 14 14 14 15 16 18 19 20 22 24 25 25 24 23 21 21 22 22 21 20 20 19 16 14 14 12 12 15 17 17 17 18 16 13 10 11 12 11 11 11 13 14 14 14 16 17 18 18 18 18 19 19 19 19 20 20 21 22 23 25 25 25 24 22 21 19 19 17 16 15 14 13 12 12 12 11 10 11 12
20 18 16 13 11 12 14 14 14 14 16 18 19 22 23 24 22 21 21 20 18 18 19 20 21 21 21 19 15 12 11 11 12 14 16 16 16 17 16 13 11 11 12 11 11 11 12 12 13 14 17 18 18 18 18 18 18 18 17 18 19 20 21 22 24 26 27 27 25 23 22 21 20 19 18 16 15 14 13 12 12 11 11 11 11
19 16 14 12 11 10 10 11 11 13 16 19 21 22 23 22 20 19 19 17 15 16 18 21 22 22 21 18 13 10 9 11 12 14 15 15 16 17 15 13 12 12 11 11 10 10 11 11 13 15 17 18 18 17 17 17 17 17 16 17 18 19 20 22 24 26 27 27 26 25 23 22 21 21 19 17 14 12 12 12 11 11 11 11 11
16 13 11 9 8 8 8 10 13 15 18 20 21 22 21 20 19 19 17 15 14 15 18 21 23 23 21 17 11 9 9 11 13 15 15 15 16 16 14 13 12 11 11 10 10 10 11 12 14 16 17 17 17 17 17 17 16 15 15 16 17 18 20 22 23 25 26 27 27 26 24 23 23 22 20 17 13 11 10 11 11 12 12 12 11
14 11 10 9 9 10 12 14 16 18 19 21 21 22 21 20 20 20 18 15 14 15 18 21 23 22 20 15 10 8 9 12 14 16 15 15 15 15 13 12 11 11 11 11 11 11 12 13 15 16 17 17 17 17 17 16 15 14 14 15 16 17 19 21 22 23 25 26 27 27 25 24 23 22 19 16 12 10 10 11 12 13 12 11 10
12 11 11 12 12 14 15 17 18 20 21 22 22 22 22 21 22 22 20 17 15 16 19 21 21 20 18 14 10 9 10 13 15 16 16 15 15 14 13 12 11 11 11 12 12 12 12 13 15 17 17 17 17 17 17 16 15 14 14 15 15 16 18 19 21 22 23 24 26 27 26 25 23 22 18 15 12 11 11 12 13 13 12 12 11
11 11 12 13 15 16 18 19 21 22 22 23 23 23 22 21 22 22 20 18 17 17 19 20 19 18 16 14 11 10 11 14 15 16 16 15 14 13 12 12 12 12 12 12 13 13 13 13 15 16 17 17 17 17 16 16 15 14 14 14 15 16 17 18 19 20 21 22 24 25 25 24 22 20 18 15 12 11 12 12 12 12 11 11 10
11 12 14 16 17 18 19 20 20 21 22 22 22 21 21 21 22 21 20 19 17 17 17 18 17 16 15 14 12 12 12 14 15 16 16 14 13 12 12 12 12 13 13 13 14 14 15 14 15 16 17 16 16 16 16 15 14 14 13 14 14 15 15 16 18 19 20 21 23 24 24 24 22 20 17 15 13 12 12 11 10 11 10 9 8
Wind_Direction
349 351 352 351 349 348 347 346 343 341 340 339 339 341 343 345 347 345 342 340 337 336 335 334 332 329 327 325 324 323 323 325 327 328 328 325 321 319 316 319 322 323 325 324 320 315 310 308 309 310 313 314 314 315 313 311 310 310 311 308 303 301 293 283 280 281 283 284 284 284 280 264 249 244 246 244 240 238 240 241 240 240 239 239 239
346 348 348 347 345 345 344 341 340 338 338 339 342 347 350 354 357 355 352 349 345 343 342 340 337 334 331 328 326 326 325 327 327 327 327 326 324 322 319 319 320 320 321 321 320 317 314 312 310 308 308 309 311 313 312 310 307 304 304 305 306 304 298 290 286 288 291 292 288 287 285 273 258 253 255 252 244 240 240 240 240 239 238 239 239
343 342 341 340 339 339 338 337 337 337 339 343 348 353 356 359 0 1 0 357 351 347 344 342 338 335 332 330 329 328 327 328 329 328 327 326 324 322 321 320 319 319 318 318 318 317 315 313 313 312 309 307 308 309 310 310 307 303 300 300 301 300 298 295 292 293 295 294 292 288 288 287 271 259 260 260 253 246 243 241 241 240 239 238 239
337 337 336 336 337 337 338 338 339 340 344 349 354 358 1 1 1 2 2 359 355 352 348 343 340 339 339 336 332 330 329 329 329 328 327 327 325 323 322 320 319 317 315 314 315 315 314 313 313 314 313 311 308 307 307 307 304 301 299 295 294 295 296 295 294 295 296 295 295 292 291 292 283 269 266 266 261 252 246 242 239 240 240 239 238
338 340 341 341 341 340 340 339 339 343 347 351 356 359 0 360 1 2 2 359 356 353 351 349 348 347 345 341 336 333 332 330 328 328 327 327 326 327 327 326 323 320 316 315 315 315 314 314 313 314 314 315 313 310 307 305 303 302 300 298 295 292 293 294 294 294 295 296 298 296 292 291 287 281 275 272 267 259 251 246 241 240 240 240 241
345 345 343 341 339 338 336 335 338 344 347 350 354 356 356 356 357 359 0 359 356 355 355 356 355 351 347 347 346 345 344 340 336 333 328 326 327 329 330 329 328 326 324 323 321 316 314 314 314 314 314 315 317 317 314 310 307 306 304 302 299 296 294 294 294 295 294 294 297 297 294 292 291 289 285 282 277 269 260 253 246 243 242 242 242
344 339 335 334 334 333 334 336 340 345 347 348 350 351 351 350 352 357 360 359 359 360 1 0 357 354 352 353 353 352 351 346 341 336 331 328 329 328 326 326 326 326 327 328 326 321 317 314 313 313 313 315 319 320 319 319 315 308 306 305 302 300 298 295 294 294 294 294 296 297 296 294 293 291 291 292 288 280 273 266 257 251 248 246 245
335 334 334 337 338 338 341 343 345 349 351 351 351 352 352 351 353 358 0 1 4 5 4 0 356 353 351 350 346 343 339 336 334 332 329 326 326 324 322 322 321 320 321 323 324 323 320 316 312 310 309 311 316 316 315 319 318 309 305 306 304 301 297 294 292 290 292 295 297 298 298 296 292 291 293 296 294 287 281 276 269 264 259 253 249
339 341 343 347 350 350 352 352 353 356 358 360 2 3 2 0 0 1 2 4 4 3 360 354 349 347 345 341 338 335 334 334 335 335 333 328 323 322 320 319 318 315 313 313 314 315 315 312 310 309 306 303 303 304 302 299 297 297 300 303 304 303 299 295 294 291 290 293 296 298 298 296 296 297 296 294 293 288 284 279 274 273 271 260 251
350 351 354 359 2 3 4 4 4 6 9 12 15 15 11 7 3 0 0 1 360 358 354 347 344 344 342 340 340 339 340 343 343 341 339 335 332 329 326 322 320 316 312 309 308 307 307 304 303 303 303 299 292 290 292 288 281 281 288 293 296 300 302 301 299 298 295 293 294 298 300 298 298 301 300 294 294 293 289 282 276 274 275 270 261
359 2 8 12 12 13 14 13 13 17 22 23 23 21 15 8 2 359 358 358 357 355 350 344 343 343 342 342 343 342 343 344 345 344 342 340 339 338 336 331 328 323 318 314 312 310 308 305 302 299 299 297 291 287 288 288 286 283 283 285 287 290 296 300 299 301 300 296 292 294 300 301 298 300 303 299 295 293 286 279 275 273 274 275 272
14 17 20 20 17 19 21 19 18 23 27 27 25 22 14 7 3 0 360 359 357 354 350 345 343 343 343 343 342 341 339 339 343 344 343 340 337 337 338 336 333 329 324 321 320 319 317 315 310 303 299 296 293 291 290 288 289 290 288 286 285 283 285 290 292 294 296 297 294 289 293 302 301 299 300 296 290 287 284 280 279 277 275 274 273
31 26 25 22 15 18 21 20 20 23 25 26 24 18 12 9 6 4 3 2 359 355 351 347 344 343 342 341 341 339 337 338 341 341 339 337 334 334 335 335 334 332 328 326 325 326 327 329 327 321 317 311 301 295 294 294 294 293 291 290 290 288 285 284 283 283 286 291 293 289 285 288 291 291 290 287 285 284 284 283 281 280 277 270 267
34 27 24 18 11 14 16 13 16 20 23 24 22 18 14 11 7 5 4 2 360 357 354 351 349 346 343 342 341 340 339 340 341 339 336 334 334 334 335 334 334 335 332 330 330 333 344 348 345 341 337 328 318 311 307 307 305 302 299 299 297 295 291 286 282 278 277 280 284 286 285 281 281 284 284 283 282 279 279 282 281 281 279 272 266
23 24 18 8 6 10 8 6 11 18 22 22 19 17 14 10 9 9 7 5 3 1 358 355 354 351 348 348 348 348 348 346 343 340 338 336 337 338 338 337 337 341 341 339 337 352 12 2 351 344 339 332 328 326 323 319 318 316 315 315 310 303 300 297 292 286 279 276 276 278 280 280 279 280 278 277 278 276 274 277 281 285 286 280 272
16 17 11 3 3 5 1 358 5 13 17 17 15 15 15 14 16 15 13 11 9 7 5 3 2 2 2 1 3 3 359 356 354 350 346 344 345 346 346 345 345 351 354 348 347 13 29 5 353 342 335 333 331 329 326 323 327 329 329 333 338 336 329 321 311 300 289 282 278 275 274 274 275 278 278 276 277 279 276 272 278 288 291 288 282
24 16 11 6 2 360 356 351 356 5 8 11 13 14 17 19 21 20 19 18 18 17 17 17 16 15 14 13 15 14 11 9 9 3 357 356 355 355 357 357 356 1 3 356 354 4 35 9 357 342 330 333 332 327 325 324 326 329 331 336 342 343 339 334 326 314 298 291 290 284 277 272 270 271 275 276 280 285 285 278 279 285 287 287 287
24 14 10 6 357 355 354 348 351 360 3 8 11 12 17 22 23 22 22 23 24 23 23 24 22 21 21 20 22 22 20 19 18 13 8 5 3 2 3 3 1 4 8 4 359 357 359 2 353 340 332 335 335 331 329 327 327 329 330 330 330 331 335 335 331 325 319 317 316 301 279 268 263 261 263 267 271 277 279 278 279 282 282 284 289
16 7 3 359 354 357 359 351 353 0 1 4 9 11 15 22 23 22 22 22 24 24 24 23 22 22 23 23 23 24 24 23 22 19 15 11 8 5 4 5 6 8 9 4 354 353 353 347 342 338 336 338 339 336 333 329 328 330 330 328 327 329 333 334 332 333 333 333 331 322 298 272 263 260 259 258 258 260 264 267 269 273 276 278 283
11 5 2 359 357 3 6 356 354 1 358 358 7 12 12 16 19 20 19 19 21 23 23 21 19 18 21 22 22 22 23 24 22 21 19 16 13 9 7 9 10 8 7 0 347 348 354 351 348 350 347 342 339 337 334 330 329 328 327 326 325 326 329 329 328 328 327 323 324 327 322 300 277 269 265 260 254 251 252 255 256 259 264 269 274
4 2 2 1 358 4 10 0 354 1 358 354 1 9 5 4 7 13 16 16 17 19 20 17 14 12 14 17 19 19 20 21 20 20 20 19 17 15 13 13 11 7 6 5 357 354 355 354 355 356 352 346 343 340 337 334 332 329 327 326 325 323 324 324 321 321 320 314 309 312 314 306 290 282 279 277 268 256 250 249 249 251 255 261 267
356 357 358 358 358 4 8 354 346 349 348 345 351 357 356 352 353 359 5 9 12 14 15 15 12 9 8 11 14 15 16 17 18 18 19 19 19 19 18 15 12 9 12 16 12 5 359 358 0 358 353 349 347 344 341 338 335 333 329 326 323 321 322 322 319 318 315 308 302 302 305 306 304 299 291 285 280 270 261 257 255 252 251 252 258
353 355 355 357 2 4 360 355 356 358 357 356 353 353 353 348 344 347 351 358 4 7 9 12 11 8 7 7 9 11 12 14 15 16 17 17 17 20 21 20 18 16 18 22 16 5 359 1 3 1 356 353 351 350 348 344 341 339 334 328 325 324 324 322 319 317 312 307 304 305 305 305 305 305 296 285 281 277 274 274 272 266 260 255 255
354 356 356 359 5 8 10 18 26 25 19 11 359 355 354 349 346 349 350 351 355 358 2 8 10 9 7 5 4 7 9 11 13 15 16 15 15 18 21 22 23 23 22 20 10 358 354 359 3 3 3 1 1 1 1 359 357 354 347 341 337 332 329 328 331 333 331 325 321 318 316 310 303 298 295 292 289 284 281 282 282 279 278 275 273
357 358 1 4 8 18 22 24 22 15 7 1 358 357 358 356 356 357 356 352 348 349 356 4 8 10 8 2 359 1 5 8 11 14 16 15 14 16 19 22 24 27 27 22 13 0 353 352 2 10 13 13 14 17 19 18 15 10 5 0 356 352 350 350 352 355 356 355 351 344 336 327 315 306 298 293 290 288 287 285 280 279 282 283 283
357 358 3 6 15 27 15 6 7 8 3 358 357 358 3 4 0 356 356 352 343 341 351 0 4 7 5 1 359 358 359 3 9 13 15 15 13 13 16 20 23 27 30 28 22 16 11 8 17 28 32 31 31 33 34 31 26 22 20 17 16 16 15 12 8 6 6 6 3 358 350 341 333 325 312 300 293 292 291 288 283 280 279 278 277
357 355 359 7 29 26 360 359 8 12 8 5 6 8 8 4 358 354 353 350 341 340 347 353 357 0 0 359 0 0 357 358 4 9 13 14 13 11 12 16 20 24 29 30 28 28 30 32 37 41 41 40 38 36 35 33 29 28 28 28 27 28 26 23 20 16 13 9 4 360 356 349 342 335 324 313 309 308 304 300 298 296 291 286 283
353 348 355 23 52 15 1 8 18 18 10 8 12 14 8 360 358 357 353 345 342 343 344 346 351 356 357 355 357 1 2 358 357 2 9 12 11 7 7 12 16 20 25 28 29 32 36 37 37 35 31 29 30 31 31 32 31 30 30 30 29 28 27 25 24 21 18 13 8 4 360 355 352 351 344 330 319 318 321 319 316 313 307 302 297
5 11 47 74 52 13 4 9 13 9 4 3 1 2 2 356 356 0 358 350 347 348 349 351 355 360 1 357 353 356 1 359 353 353 359 6 8 5 3 6 12 15 18 22 24 28 32 34 33 32 28 23 22 22 24 26 28 28 28 26 25 24 23 21 19 19 16 12 8 6 4 3 3 4 3 355 338 325 325 325 323 319 314 311 314
51 77 87 71 35 10 2 360 359 356 353 351 349 352 356 356 359 8 15 17 16 17 15 7 0 2 7 8 1 356 354 353 349 345 346 354 1 2 1 2 5 9 11 13 16 21 25 28 28 28 27 25 23 20 17 16 18 20 21 21 21 21 20 18 16 14 12 9 8 7 5 3 5 7 10 11 4 349 335 328 328 329 324 320 326
86 91 71 41 12 360 351 344 347 347 338 338 345 352 357 359 4 15 24 28 32 37 36 21 5 3 9 16 19 13 3 355 349 341 338 343 348 353 356 357 359 2 3 3 8 13 18 20 20 20 20 20 20 18 15 12 11 11 12 13 15 15 14 14 12 9 5 4 5 5 4 3 3 5 7 9 9 6 356 341 331 334 339 342 346
103 90 42 8 351 349 341 332 338 344 337 333 341 352 359 2 7 14 17 17 19 25 29 25 13 7 9 16 23 24 21 16 6 351 341 340 341 345 349 351 354 357 357 355 358 4 9 12 13 13 13 13 13 13 11 10 9 6 5 6 7 7 7 7 6 3 0 358 358 359 1 2 1 1 3 3 5 7 9 6 356 346 346 352 356
117 85 355 343 339 339 334 329 335 343 343 340 341 348 358 5 7 7 7 7 7 11 15 16 10 6 7 11 16 20 22 22 18 7 355 346 340 340 344 346 347 349 351 351 353 357 1 3 5 6 6 7 7 7 7 7 6 4 2 2 1 1 360 359 359 358 357 354 352 352 354 356 358 358 359 0 3 5 8 12 13 9 1 355 353
225 278 301 318 328 326 325 330 335 338 341 344 348 353 1 6 4 1 1 1 360 0 3 4 3 1 1 3 6 11 14 17 17 12 6 359 349 341 339 339 339 340 343 347 350 352 354 356 357 358 360 2 3 3 3 3 3 2 0 358 356 355 354 353 354 355 354 350 348 347 348 350 353 353 353 356 2 5 7 11 14 17 19 18 13
253 271 282 294 308 313 317 327 335 336 337 341 347 354 359 359 356 354 354 353 352 352 353 353 354 354 354 355 358 1 5 8 9 7 5 3 358 349 340 336 337 340 342 346 349 349 349 349 349 351 355 358 360 360 359 359 360 359 359 357 354 352 351 352 353 355 354 350 347 345 345 346 348 349 349 350 354 359 4 10 13 15 17 19 18
271 274 278 282 295 311 320 324 328 331 333 336 339 343 347 347 346 344 343 343 342 342 343 343 344 344 345 346 349 352 357 360 1 1 359 358 357 354 348 342 342 344 345 347 349 348 346 344 345 348 352 355 357 358 358 358 358 358 356 355 353 352 352 353 355 357 358 356 351 348 346 345 345 347 346 345 347 351 356 2 7 10 13 14 13
294 283 283 284 295 312 323 326 325 323 322 323 329 332 335 337 337 336 335 335 334 333 333 334 334 334 334 335 337 343 349 351 354 356 355 352 352 353 351 346 344 342 342 344 345 345 345 344 343 346 351 354 357 359 358 357 357 355 352 351 351 353 354 356 358 360 1 0 357 354 351 347 344 344 344 343 341 341 343 347 351 356 0 3 3
321 298 289 290 297 306 313 318 318 315 311 314 321 326 328 330 330 330 332 334 333 331 329 327 324 323 325 325 325 330 338 343 347 352 351 347 347 350 349 345 340 338 338 341 342 344 347 347 346 349 353 356 357 356 356 356 353 349 346 348 351 355 357 360 2 3 4 3 360 357 355 351 345 342 342 341 339 336 334 334 336 339 342 346 350
335 320 307 300 300 303 308 314 312 308 307 310 314 318 322 323 323 325 329 331 329 327 327 325 320 317 317 316 314 319 330 334 339 346 347 344 344 347 347 341 334 332 336 340 342 346 352 353 351 353 355 355 355 354 354 353 348 343 345 350 354 358 1 3 5 6 7 7 5 1 358 357 351 344 340 337 335 335 334 332 332 334 334 335 337
327 325 320 315 309 302 301 305 308 307 308 310 311 313 316 317 319 321 322 322 321 320 321 323 323 319 315 309 303 308 321 328 333 342 344 341 341 345 346 339 330 328 333 337 341 347 351 350 350 353 354 353 353 352 351 347 343 345 351 357 358 360 2 4 5 6 8 10 9 5 2 1 359 354 346 338 333 332 332 333 333 333 332 332 332
307 307 308 314 318 312 301 293 296 306 309 308 309 312 316 320 323 323 319 317 315 313 315 322 326 325 321 311 301 302 312 320 328 339 341 338 339 344 345 339 329 325 329 335 341 344 343 344 347 352 352 350 350 350 348 345 346 352 358 360 359 0 2 2 3 5 7 9 8 6 4 2 1 359 354 347 339 332 330 330 331 330 331 332 331
308 304 300 298 307 316 312 297 289 296 303 304 307 313 318 322 324 323 320 317 312 308 314 323 327 324 321 317 306 298 301 311 325 337 337 334 336 342 345 341 332 326 329 336 341 340 339 343 348 350 349 347 348 349 348 347 350 355 359 359 358 359 0 1 3 4 4 4 4 2 0 358 357 356 355 352 346 339 334 330 329 328 330 331 332
315 310 306 298 291 300 310 306 293 290 296 300 305 311 314 317 319 320 318 315 310 309 317 325 324 317 315 316 309 298 296 306 327 337 334 329 333 342 345 343 333 328 333 338 338 335 339 344 346 346 346 346 347 349 348 348 351 355 357 358 358 358 359 1 3 2 1 1 360 358 356 354 352 350 349 347 345 343 340 336 333 332 333 334 336
318 311 309 305 294 292 301 303 294 288 291 297 303 308 311 313 316 318 317 315 314 318 323 324 321 315 314 315 311 301 298 311 331 334 326 325 333 342 346 344 335 330 332 334 331 332 338 342 342 343 345 346 348 349 350 350 351 354 356 356 356 357 360 1 2 2 2 2 360 358 356 353 350 348 345 342 340 340 341 342 341 340 341 341 339
326 317 309 304 299 296 297 297 290 286 290 297 303 307 310 312 317 321 322 321 323 328 329 326 322 319 318 317 313 303 304 319 328 322 317 322 333 341 344 344 336 328 326 327 328 331 336 337 338 342 345 347 348 350 350 349 351 353 354 354 355 357 360 1 2 4 4 3 1 0 358 355 352 349 345 341 337 334 334 337 340 340 340 339 337
334 328 316 306 302 300 298 295 291 290 295 301 304 307 310 314 318 322 323 323 326 331 332 329 325 323 323 321 314 303 307 317 317 311 311 321 332 340 343 342 335 327 324 325 328 331 333 334 337 343 345 347 349 350 350 349 350 352 353 354 355 357 359 0 4 5 4 3 2 2 359 357 355 351 346 343 339 334 333 336 337 335 333 331 330
336 335 327 318 313 309 304 303 303 302 303 305 306 307 310 312 313 315 317 316 319 326 330 329 327 326 327 324 315 307 311 313 309 306 310 319 330 338 342 342 338 333 329 327 330 332 332 332 336 342 345 347 349 350 349 348 350 352 352 353 355 356 357 1 5 6 4 4 4 3 1 360 358 355 353 352 349 343 340 341 339 335 333 330 328
333 333 328 319 315 311 307 307 306 305 306 306 305 306 310 313 314 316 316 312 312 323 330 329 328 329 329 325 317 313 313 309 303 303 308 317 328 336 339 340 342 342 340 338 336 331 328 330 335 340 344 346 348 348 347 347 349 351 352 353 354 354 356 0 4 4 4 5 5 4 2 0 358 357 358 358 354 350 346 342 338 336 335 333 331
328 328 322 317 313 312 311 311 308 307 309 310 309 309 313 316 317 318 316 310 311 323 329 327 326 328 329 324 315 312 311 306 302 300 305 316 328 333 335 336 339 341 343 343 339 332 327 328 333 338 341 344 345 346 346 346 346 349 351 352 352 352 355 359 1 2 2 3 4 4 3 0 358 359 359 357 354 352 347 341 338 338 337 335 334
323 324 323 319 316 314 315 315 313 311 310 309 309 310 314 316 317 315 310 305 308 319 324 323 323 326 326 321 313 310 312 311 303 299 303 316 327 331 332 332 332 335 339 340 337 333 329 329 332 336 339 341 343 344 344 344 344 345 347 348 348 350 353 355 356 357 359 360 1 3 2 360 358 359 1 1 0 356 346 340 339 340 339 338 339
312 315 316 316 318 321 324 326 325 323 320 317 315 315 315 316 315 312 306 303 307 315 319 321 322 324 323 319 312 308 312 310 301 296 303 316 325 326 325 325 326 329 333 333 332 330 329 329 331 334 336 338 340 341 341 341 341 341 342 345 345 345 347 350 352 353 355 356 358 360 0 360 359 360 2 6 4 352 341 338 340 340 340 343 349
Height
1551 1550 1549 1547 1546 1544 1543 1541 1540 1538 1537 1535 1533 1532 1530 1529 1527 1527 1525 1524 1524 1522 1522 1521 1520 1519 1518 1517 1516 1515 1515 1514 1513 1512 1511 1510 1509 1508 1508 1507 1506 1505 1504 1503 1503 1502 1501 1500 1499 1499 1498 1497 1496 1496 1496 1495 1495 1494 1494 1493 1492 1492 1491 1491 1490 1488 1488 1489 1489 1489 1490 1490 1490 1491 1492 1493 1494 1494 1494 1495 1496 1497 1498 1499 1500
1550 1549 1547 1546 1544 1543 1542 1540 1539 1537 1536 1534 1533 1531 1530 1528 1527 1526 1525 1524 1524 1522 1522 1521 1520 1519 1518 1517 1516 1515 1514 1513 1512 1511 1510 1509 1508 1507 1507 1506 1505 1504 1503 1502 1502 1501 1500 1499 1498 1497 1497 1496 1495 1494 1494 1494 1493 1493 1493 1492 1491 1491 1490 1490 1489 1487 1486 1487 1487 1486 1487 1488 1488 1489 1490 1491 1491 1492 1492 1492 1493 1494 1495 1496 1497
1549 1548 1547 1545 1544 1543 1541 1540 1538 1537 1535 1533 1532 1530 1529 1528 1527 1526 1526 1525 1524 1522 1522 1521 1520 1519 1518 1517 1516 1515 1514 1513 1512 1511 1509 1508 1507 1506 1506 1505 1504 1503 1502 1501 1500 1500 1499 1498 1497 1496 1496 1495 1494 1493 1493 1492 1492 1492 1491 1491 1490 1490 1489 1488 1488 1486 1485 1484 1485 1485 1485 1485 1486 1486 1487 1488 1488 1488 1489 1490 1490 1491 1492 1493 1493
1550 1548 1547 1546 1544 1543 1541 1539 1537 1535 1534 1532 1531 1530 1529 1528 1527 1526 1526 1525 1524 1523 1522 1521 1520 1519 1518 1517 1516 1514 1513 1512 1511 1510 1509 1508 1506 1505 1504 1503 1503 1502 1501 1500 1499 1498 1497 1497 1496 1495 1494 1494 1493 1492 1491 1491 1490 1490 1490 1489 1489 1488 1488 1487 1486 1485 1484 1483 1482 1483 1483 1483 1483 1484 1485 1485 1485 1486 1486 1486 1487 1488 1489 1490 1490
1550 1548 1547 1545 1543 1542 1540 1538 1536 1534 1533 1532 1531 1530 1528 1528 1527 1526 1525 1524 1523 1522 1521 1520 1519 1518 1517 1516 1515 1514 1513 1512 1510 1509 1508 1507 1506 1504 1503 1502 1501 1501 1500 1499 1498 1497 1496 1495 1494 1494 1493 1492 1492 1491 1490 1489 1489 1488 1488 1488 1487 1487 1486 1485 1484 1484 1483 1481 1481 1481 1481 1481 1481 1482 1483 1482 1482 1483 1483 1483 1484 1485 1486 1486 1487
1548 1547 1545 1544 1542 1541 1539 1537 1536 1534 1533 1531 1530 1529 1528 1527 1526 1526 1525 1524 1523 1522 1521 1520 1519 1517 1516 1515 1514 1513 1512 1511 1510 1509 1507 1506 1505 1504 1503 1501 1500 1500 1499 1498 1497 1495 1495 1494 1493 1492 1492 1491 1490 1489 1488 1488 1487 1487 1486 1486 1485 1485 1484 1484 1483 1482 1481 1480 1480 1479 1479 1479 1479 1480 1480 1480 1479 1480 1480 1480 1481 1482 1482 1483 1484
1548 1547 1545 1544 1542 1540 1538 1537 1535 1534 1533 1531 1530 1529 1528 1527 1526 1526 1525 1524 1523 1522 1521 1520 1518 1517 1516 1515 1514 1513 1512 1511 1509 1508 1507 1505 1504 1503 1502 1500 1499 1498 1498 1497 1496 1495 1494 1493 1492 1491 1491 1490 1489 1488 1487 1486 1486 1485 1484 1484 1483 1483 1483 1482 1482 1481 1480 1479 1479 1478 1478 1478 1477 1477 1477 1477 1477 1477 1477 1477 1478 1478 1479 1479 1481
1548 1547 1545 1543 1541 1539 1538 1537 1535 1534 1533 1532 1531 1530 1528 1527 1527 1526 1525 1524 1523 1522 1521 1520 1518 1517 1516 1515 1513 1512 1511 1510 1509 1507 1506 1504 1503 1502 1501 1499 1498 1497 1496 1496 1495 1494 1493 1492 1491 1490 1490 1489 1488 1487 1487 1486 1484 1484 1483 1482 1482 1481 1481 1480 1480 1479 1479 1478 1477 1477 1476 1476 1476 1475 1475 1475 1475 1475 1475 1475 1475 1475 1476 1477 1478
1547 1545 1543 1542 1540 1539 1538 1537 1535 1534 1533 1532 1531 1530 1529 1528 1527 1526 1525 1524 1523 1522 1521 1520 1518 1517 1516 1514 1513 1512 1510 1509 1507 1506 1505 1503 1502 1501 1499 1498 1497 1495 1494 1494 1493 1493 1492 1491 1491 1490 1489 1488 1487 1486 1486 1485 1483 1482 1481 1481 1480 1479 1478 1478 1477 1477 1476 1476 1476 1475 1474 1474 1474 1473 1474 1474 1473 1473 1473 1473 1472 1472 1473 1474 1475
1546 1544 1543 1541 1540 1539 1538 1537 1536 1535 1533 1532 1531 1530 1529 1528 1527 1526 1525 1524 1523 1522 1521 1519 1518 1517 1515 1514 1513 1511 1510 1508 1507 1505 1504 1502 1501 1500 1498 1497 1495 1494 1493 1492 1491 1490 1490 1489 1489 1488 1487 1486 1485 1484 1483 1483 1482 1481 1480 1479 1479 1478 1477 1476 1475 1475 1474 1474 1474 1474 1473 1472 1472 1472 1472 1471 1471 1470 1470 1471 1470 1470 1471 1471 1471
1546 1544 1543 1542 1541 1540 1539 1537 1536 1535 1534 1533 1532 1531 1530 1529 1528 1527 1525 1524 1523 1522 1521 1519 1517 1516 1514 1513 1512 1510 1509 1507 1506 1505 1503 1501 1500 1498 1497 1496 1494 1492 1491 1490 1489 1488 1487 1486 1486 1485 1485 1484 1483 1482 1481 1481 1480 1480 1479 1479 1478 1477 1476 1475 1474 1473 1472 1472 1472 1472 1472 1471 1471 1470 1470 1469 1469 1468 1468 1468 1468 1468 1469 1469 1468
1546 1544 1543 1542 1541 1540 1540 1538 1537 1536 1535 1534 1532 1531 1530 1529 1528 1527 1525 1524 1523 1522 1521 1519 1517 1516 1514 1513 1511 1510 1508 1507 1505 1504 1502 1500 1499 1497 1496 1494 1493 1491 1489 1488 1487 1486 1485 1484 1483 1482 1482 1481 1480 1480 1480 1479 1478 1478 1478 1477 1477 1476 1475 1473 1472 1472 1471 1470 1470 1470 1470 1470 1469 1469 1468 1467 1467 1467 1466 1466 1466 1466 1467 1467 1466
1546 1545 1544 1543 1542 1541 1540 1539 1538 1537 1535 1534 1533 1532 1531 1529 1528 1527 1526 1524 1523 1522 1520 1519 1517 1515 1514 1512 1511 1510 1508 1506 1505 1503 1501 1500 1498 1496 1494 1493 1491 1490 1488 1487 1486 1485 1483 1482 1480 1479 1479 1478 1478 1478 1477 1476 1476 1475 1475 1475 1474 1474 1473 1472 1471 1470 1469 1468 1468 1468 1468 1468 1467 1467 1467 1466 1465 1465 1465 1465 1465 1464 1464 1464 1464
1547 1546 1545 1543 1542 1542 1541 1540 1538 1537 1536 1535 1534 1533 1531 1530 1529 1527 1526 1525 1523 1522 1520 1518 1517 1515 1514 1512 1511 1509 1508 1506 1504 1502 1501 1499 1497 1495 1493 1492 1490 1488 1487 1486 1485 1484 1482 1481 1479 1478 1478 1477 1476 1476 1475 1474 1472 1472 1472 1472 1472 1471 1470 1470 1469 1468 1468 1467 1466 1466 1466 1466 1465 1465 1465 1464 1464 1463 1463 1463 1463 1462 1461 1461 1461
1547 1547 1545 1544 1543 1542 1541 1540 1539 1538 1537 1536 1535 1533 1532 1531 1529 1528 1526 1525 1523 1522 1520 1519 1517 1515 1514 1512 1511 1509 1508 1506 1504 1502 1500 1498 1496 1495 1493 1491 1489 1487 1486 1485 1484 1483 1482 1481 1479 1478 1477 1476 1475 1474 1473 1472 1470 1469 1469 1469 1469 1468 1468 1467 1467 1466 1465 1465 1464 1464 1464 1463 1463 1462 1462 1462 1462 1461 1461 1461 1460 1460 1459 1459 1458
1548 1547 1545 1544 1543 1543 1542 1541 1539 1538 1537 1537 1535 1534 1533 1531 1530 1528 1526 1525 1524 1522 1521 1519 1517 1516 1514 1513 1511 1509 1507 1506 1504 1501 1499 1497 1495 1494 1492 1490 1488 1487 1485 1484 1483 1483 1482 1481 1479 1477 1476 1475 1475 1474 1472 1471 1469 1468 1467 1466 1466 1466 1466 1465 1464 1464 1463 1462 1462 1461 1461 1461 1461 1460 1460 1460 1460 1460 1459 1459 1459 1458 1457 1456 1456
1548 1547 1546 1545 1544 1543 1542 1541 1540 1539 1538 1537 1536 1534 1533 1532 1530 1529 1527 1526 1524 1523 1521 1520 1518 1516 1515 1513 1511 1510 1508 1506 1504 1501 1499 1497 1495 1493 1491 1490 1488 1486 1485 1484 1483 1482 1482 1481 1478 1476 1476 1475 1474 1473 1471 1470 1469 1467 1466 1465 1465 1465 1464 1464 1463 1462 1461 1460 1459 1459 1458 1458 1458 1458 1458 1458 1457 1457 1457 1457 1457 1456 1456 1455 1454
1548 1547 1546 1545 1544 1543 1542 1541 1540 1539 1538 1537 1536 1535 1533 1532 1531 1529 1528 1526 1525 1524 1522 1521 1519 1517 1516 1514 1512 1510 1508 1506 1504 1502 1499 1497 1495 1493 1491 1489 1488 1486 1485 1484 1483 1482 1481 1481 1478 1476 1475 1474 1473 1472 1471 1469 1468 1466 1465 1464 1464 1463 1462 1462 1460 1460 1459 1458 1457 1457 1456 1456 1455 1455 1455 1455 1455 1455 1455 1455 1454 1454 1454 1453 1453
1548 1547 1546 1545 1544 1542 1541 1541 1540 1539 1538 1537 1536 1535 1534 1533 1532 1530 1529 1527 1526 1525 1523 1522 1520 1518 1516 1515 1513 1511 1509 1507 1505 1503 1500 1497 1495 1493 1491 1489 1488 1486 1485 1484 1483 1482 1481 1480 1478 1476 1475 1474 1472 1471 1470 1468 1467 1465 1464 1463 1462 1461 1461 1460 1458 1457 1456 1456 1455 1454 1454 1454 1453 1453 1453 1453 1453 1453 1453 1453 1453 1452 1452 1452 1451
1547 1547 1545 1544 1543 1542 1541 1541 1540 1539 1538 1537 1536 1535 1534 1533 1532 1531 1530 1528 1527 1526 1524 1522 1521 1519 1517 1516 1514 1512 1510 1508 1506 1504 1501 1498 1496 1493 1491 1489 1488 1487 1485 1484 1483 1482 1480 1479 1478 1476 1475 1473 1472 1470 1469 1468 1466 1465 1463 1462 1460 1459 1459 1458 1457 1456 1455 1454 1453 1453 1452 1452 1451 1451 1451 1451 1451 1451 1451 1450 1450 1450 1450 1450 1450
1547 1546 1545 1544 1543 1542 1541 1541 1540 1539 1538 1537 1536 1536 1535 1534 1533 1532 1530 1529 1528 1526 1525 1523 1521 1520 1518 1517 1515 1513 1511 1509 1507 1505 1502 1500 1497 1494 1492 1490 1488 1487 1486 1485 1483 1481 1480 1479 1477 1476 1474 1473 1471 1470 1468 1467 1466 1464 1463 1461 1460 1458 1457 1457 1456 1454 1453 1452 1451 1451 1450 1450 1450 1449 1449 1448 1448 1448 1448 1448 1448 1448 1448 1448 1448
1547 1546 1545 1544 1543 1542 1541 1540 1540 1539 1538 1537 1536 1536 1535 1534 1533 1532 1531 1530 1528 1527 1526 1524 1522 1521 1519 1517 1516 1514 1512 1510 1508 1506 1503 1501 1498 1496 1493 1491 1489 1487 1486 1485 1483 1482 1480 1479 1478 1476 1475 1473 1471 1470 1468 1467 1465 1464 1462 1461 1459 1458 1456 1455 1454 1453 1452 1451 1450 1449 1448 1448 1448 1447 1447 1447 1446 1446 1446 1446 1445 1445 1445 1446 1446
1546 1546 1545 1544 1543 1542 1541 1540 1539 1538 1538 1537 1537 1536 1535 1534 1533 1532 1531 1530 1529 1527 1526 1525 1523 1521 1520 1518 1516 1515 1513 1511 1509 1507 1504 1502 1500 1497 1494 1492 1490 1488 1486 1485 1484 1483 1481 1480 1479 1477 1475 1474 1472 1470 1468 1467 1465 1463 1462 1460 1459 1457 1456 1455 1453 1452 1451 1450 1449 1448 1447 1446 1446 1445 1445 1445 1444 1444 1444 1443 1443 1443 1442 1443 1443
1546 1545 1545 1544 1543 1542 1541 1540 1539 1539 1538 1537 1537 1536 1535 1534 1533 1532 1531 1530 1529 1528 1526 1525 1523 1521 1520 1518 1517 1515 1514 1512 1510 1508 1505 1503 1501 1498 1496 1493 1491 1489 1487 1485 1484 1483 1482 1481 1479 1478 1476 1474 1473 1471 1469 1467 1465 1464 1462 1460 1458 1457 1455 1454 1453 1451 1450 1449 1448 1447 1446 1445 1444 1444 1443 1443 1442 1442 1442 1441 1441 1440 1440 1440 1440
1546 1545 1545 1544 1543 1542 1541 1541 1540 1539 1538 1538 1537 1536 1536 1535 1533 1532 1531 1530 1529 1528 1526 1525 1523 1522 1520 1518 1517 1515 1514 1512 1511 1509 1506 1504 1502 1500 1497 1495 1492 1490 1488 1486 1485 1484 1482 1481 1480 1478 1477 1475 1473 1472 1470 1468 1466 1464 1462 1460 1458 1457 1455 1453 1452 1451 1449 1448 1447 1446 1446 1445 1444 1443 1442 1441 1441 1440 1440 1439 1439 1439 1438 1438 1438
1546 1545 1545 1544 1543 1543 1542 1541 1541 1540 1539 1538 1537 1537 1536 1535 1534 1532 1531 1530 1529 1528 1526 1525 1524 1522 1520 1518 1517 1515 1514 1512 1511 1509 1507 1505 1503 1501 1499 1497 1494 1492 1490 1488 1486 1485 1483 1482 1480 1479 1477 1476 1474 1472 1471 1469 1467 1465 1463 1461 1459 1457 1455 1453 1452 1450 1449 1448 1447 1446 1445 1444 1443 1442 1441 1441 1440 1439 1438 1437 1437 1437 1436 1436 1436
1546 1545 1545 1544 1544 1543 1543 1542 1541 1540 1539 1539 1538 1537 1536 1535 1534 1533 1532 1530 1529 1528 1527 1525 1524 1522 1520 1519 1517 1515 1514 1512 1511 1509 1508 1506 1504 1502 1500 1498 1496 1494 1491 1490 1488 1486 1484 1483 1482 1480 1479 1477 1475 1473 1472 1470 1468 1466 1463 1461 1460 1458 1456 1455 1453 1451 1450 1449 1447 1446 1445 1444 1443 1442 1441 1440 1439 1438 1437 1436 1435 1435 1434 1434 1434
1546 1545 1544 1544 1544 1543 1543 1542 1541 1541 1540 1539 1538 1537 1537 1536 1534 1533 1532 1530 1529 1528 1527 1525 1524 1522 1520 1518 1517 1515 1514 1512 1511 1509 1508 1506 1504 1503 1501 1499 1497 1495 1493 1491 1490 1488 1486 1485 1483 1481 1480 1478 1476 1474 1472 1470 1469 1467 1465 1463 1461 1459 1458 1456 1454 1452 1451 1450 1448 1447 1445 1444 1442 1441 1440 1439 1438 1437 1437 1436 1435 1434 1433 1433 1432
1545 1545 1544 1544 1544 1544 1543 1542 1542 1541 1540 1539 1538 1538 1537 1536 1535 1533 1532 1530 1529 1528 1527 1526 1524 1523 1521 1519 1516 1515 1513 1512 1510 1509 1507 1506 1505 1503 1501 1500 1498 1496 1495 1493 1491 1490 1487 1485 1484 1482 1480 1478 1477 1475 1473 1471 1469 1468 1466 1464 1462 1460 1458 1456 1454 1453 1451 1450 1448 1446 1445 1443 1442 1441 1439 1438 1437 1437 1436 1435 1434 1434 1433 1432 1432
1546 1545 1545 1545 1545 1544 1543 1543 1542 1541 1540 1540 1539 1538 1537 1536 1535 1534 1532 1531 1529 1528 1527 1526 1524 1523 1521 1519 1517 1515 1513 1512 1510 1509 1508 1506 1505 1503 1502 1500 1499 1497 1496 1494 1492 1490 1488 1486 1484 1483 1481 1479 1477 1475 1474 1472 1470 1468 1466 1465 1463 1461 1459 1457 1455 1453 1452 1450 1449 1447 1445 1443 1442 1440 1439 1438 1437 1436 1435 1434 1433 1433 1432 1432 1431
1546 1546 1546 1545 1545 1544 1544 1543 1542 1541 1540 1539 1539 1538 1537 1536 1535 1534 1533 1531 1530 1528 1527 1526 1524 1523 1521 1519 1517 1516 1514 1512 1510 1509 1508 1506 1505 1504 1502 1501 1499 1498 1496 1495 1493 1491 1489 1487 1486 1484 1482 1480 1478 1477 1475 1473 1471 1469 1467 1465 1463 1461 1460 1458 1456 1454 1452 1451 1449 1447 1446 1444 1442 1441 1439 1438 1437 1436 1435 1434 1433 1433 1432 1431 1431
1547 1546 1546 1546 1545 1544 1544 1543 1542 1541 1540 1539 1539 1538 1537 1536 1535 1534 1533 1531 1530 1529 1527 1526 1525 1523 1521 1519 1517 1516 1514 1512 1510 1509 1507 1506 1505 1504 1502 1501 1499 1498 1497 1495 1493 1492 1490 1488 1487 1485 1483 1481 1480 1478 1476 1474 1472 1470 1468 1466 1464 1462 1460 1458 1457 1455 1453 1451 1449 1447 1446 1444 1443 1441 1440 1439 1437 1436 1435 1434 1433 1432 1432 1431 1430
1547 1546 1546 1545 1545 1544 1543 1543 1542 1541 1540 1539 1538 1537 1536 1535 1534 1533 1532 1531 1530 1529 1527 1525 1524 1523 1521 1519 1517 1515 1514 1512 1510 1509 1507 1506 1505 1503 1502 1501 1499 1498 1497 1495 1494 1492 1490 1489 1487 1486 1484 1482 1480 1478 1477 1475 1473 1471 1469 1467 1465 1463 1461 1459 1457 1455 1453 1451 1449 1447 1446 1444 1443 1442 1441 1439 1438 1437 1435 1434 1433 1432 1431 1431 1430
1547 1546 1546 1545 1545 1544 1543 1542 1542 1541 1540 1539 1538 1537 1536 1535 1534 1533 1532 1530 1529 1528 1527 1525 1524 1522 1521 1519 1517 1516 1514 1512 1510 1509 1507 1506 1504 1503 1502 1500 1499 1498 1496 1495 1493 1492 1490 1489 1487 1486 1484 1483 1481 1479 1477 1475 1473 1471 1469 1467 1465 1463 1461 1459 1457 1455 1453 1450 1449 1447 1445 1444 1443 1442 1441 1440 1438 1437 1436 1435 1434 1433 1431 1431 1430
1546 1546 1545 1545 1544 1543 1543 1542 1541 1540 1539 1538 1537 1536 1535 1534 1533 1532 1531 1530 1528 1527 1526 1525 1524 1522 1521 1519 1517 1516 1514 1512 1510 1509 1507 1506 1504 1503 1501 1500 1499 1497 1496 1495 1493 1492 1491 1489 1487 1486 1484 1483 1481 1479 1477 1476 1474 1472 1470 1468 1466 1463 1461 1459 1457 1455 1452 1450 1448 1446 1445 1444 1443 1441 1440 1439 1438 1437 1436 1435 1434 1433 1432 1431 1430
1545 1545 1545 1544 1544 1543 1542 1542 1541 1540 1539 1538 1537 1536 1535 1534 1533 1532 1530 1529 1528 1527 1526 1525 1523 1522 1520 1519 1517 1516 1514 1512 1510 1509 1507 1505 1504 1502 1500 1499 1498 1497 1496 1494 1493 1492 1490 1489 1487 1486 1484 1483 1481 1479 1478 1476 1474 1472 1470 1468 1466 1463 1461 1458 1456 1454 1452 1450 1448 1446 1444 1443 1442 1441 1440 1439 1438 1437 1436 1435 1434 1433 1432 1431 1430
1545 1544 1544 1544 1543 1543 1542 1541 1540 1539 1538 1537 1536 1535 1534 1533 1532 1531 1530 1529 1528 1526 1525 1524 1522 1521 1520 1518 1517 1515 1514 1512 1510 1509 1507 1505 1503 1502 1500 1499 1498 1497 1495 1494 1493 1491 1490 1488 1487 1485 1484 1483 1481 1479 1478 1476 1474 1472 1470 1468 1465 1463 1461 1459 1456 1454 1452 1450 1448 1446 1444 1443 1442 1441 1440 1439 1438 1437 1436 1435 1434 1434 1433 1432 1431
1544 1544 1543 1543 1542 1542 1541 1540 1539 1538 1537 1536 1535 1534 1533 1533 1532 1530 1529 1528 1527 1526 1524 1523 1521 1520 1519 1517 1516 1515 1513 1512 1510 1509 1507 1505 1503 1501 1500 1498 1497 1496 1495 1494 1492 1491 1489 1488 1486 1485 1484 1482 1481 1479 1478 1476 1474 1472 1470 1467 1465 1463 1461 1459 1456 1454 1452 1450 1448 1446 1444 1443 1441 1440 1439 1438 1437 1437 1436 1435 1434 1433 1432 1431 1430
1544 1543 1543 1542 1541 1541 1540 1539 1538 1537 1536 1536 1535 1534 1533 1532 1531 1530 1529 1528 1526 1525 1523 1521 1519 1518 1517 1516 1515 1513 1512 1511 1509 1508 1507 1505 1502 1501 1499 1498 1497 1496 1495 1493 1492 1490 1489 1487 1486 1485 1484 1482 1481 1479 1477 1475 1474 1471 1469 1467 1464 1462 1460 1458 1456 1454 1452 1450 1448 1446 1444 1443 1441 1440 1439 1438 1437 1436 1435 1434 1433 1433 1432 1431 1430
1543 1542 1542 1541 1540 1540 1539 1538 1537 1536 1535 1535 1534 1533 1532 1531 1530 1529 1528 1526 1525 1523 1521 1519 1517 1516 1515 1514 1513 1512 1511 1510 1508 1507 1506 1504 1502 1500 1498 1497 1496 1495 1494 1493 1491 1490 1489 1487 1486 1485 1483 1482 1480 1479 1477 1475 1473 1471 1468 1466 1464 1462 1460 1458 1456 1454 1452 1450 1448 1446 1445 1443 1441 1440 1439 1438 1436 1435 1434 1434 1433 1432 1431 1430 1429
1542 1542 1541 1540 1539 1538 1537 1537 1536 1535 1534 1534 1533 1532 1531 1530 1528 1527 1526 1524 1523 1521 1520 1518 1516 1514 1513 1512 1511 1510 1510 1508 1507 1506 1505 1503 1501 1499 1497 1496 1495 1494 1493 1492 1491 1490 1488 1487 1486 1485 1483 1481 1480 1478 1476 1474 1472 1470 1468 1466 1464 1462 1460 1458 1456 1454 1452 1450 1448 1446 1445 1443 1441 1440 1439 1437 1436 1435 1434 1433 1432 1431 1430 1429 1428
1541 1540 1539 1538 1538 1537 1536 1535 1535 1534 1533 1532 1531 1530 1530 1528 1527 1526 1524 1522 1521 1519 1518 1516 1514 1513 1511 1510 1509 1508 1508 1507 1506 1505 1504 1502 1500 1498 1497 1495 1494 1493 1493 1491 1490 1489 1488 1487 1486 1484 1483 1481 1479 1477 1475 1474 1472 1470 1468 1466 1464 1462 1460 1458 1456 1454 1452 1450 1448 1446 1444 1443 1441 1440 1438 1437 1436 1434 1433 1432 1431 1431 1430 1429 1428
1540 1538 1537 1536 1536 1535 1534 1534 1533 1532 1532 1531 1530 1529 1528 1527 1525 1524 1522 1520 1519 1517 1516 1514 1512 1511 1509 1508 1507 1506 1506 1505 1505 1504 1502 1501 1499 1497 1496 1494 1493 1492 1492 1491 1489 1489 1487 1486 1485 1484 1482 1480 1479 1477 1475 1473 1471 1469 1468 1466 1464 1462 1460 1458 1457 1454 1452 1450 1448 1446 1444 1442 1440 1439 1438 1436 1435 1434 1433 1431 1430 1430 1429 1428 1427
1538 1536 1535 1534 1534 1533 1533 1532 1532 1531 1530 1529 1528 1527 1526 1525 1524 1522 1520 1518 1517 1516 1514 1512 1511 1509 1508 1506 1505 1505 1504 1504 1504 1503 1501 1500 1498 1497 1495 1493 1492 1491 1491 1490 1489 1488 1487 1486 1484 1483 1481 1479 1478 1476 1474 1472 1471 1469 1467 1465 1464 1462 1460 1458 1456 1454 1451 1449 1447 1445 1443 1442 1440 1438 1437 1435 1434 1433 1432 1431 1430 1429 1428 1427 1427
1536 1535 1533 1532 1532 1531 1531 1530 1530 1529 1529 1528 1527 1526 1524 1523 1522 1520 1518 1517 1515 1514 1513 1511 1509 1508 1506 1505 1504 1503 1503 1503 1502 1501 1500 1499 1497 1496 1494 1492 1491 1490 1490 1489 1488 1487 1486 1485 1484 1482 1480 1479 1477 1475 1473 1472 1470 1468 1467 1465 1464 1462 1460 1458 1456 1453 1451 1449 1446 1444 1442 1441 1439 1437 1435 1434 1432 1431 1430 1429 1429 1428 1427 1427 1427
1535 1533 1532 1531 1531 1530 1530 1529 1529 1528 1527 1526 1525 1524 1522 1521 1519 1518 1517 1515 1514 1513 1511 1510 1508 1506 1505 1503 1502 1502 1502 1502 1501 1500 1499 1498 1496 1495 1493 1492 1490 1489 1488 1488 1487 1486 1485 1484 1483 1481 1480 1478 1476 1474 1473 1471 1469 1468 1467 1465 1463 1461 1460 1458 1456 1453 1451 1448 1446 1444 1442 1440 1438 1436 1434 1432 1431 1430 1429 1429 1428 1428 1427 1427 1426
1534 1533 1532 1531 1530 1530 1529 1529 1528 1527 1526 1525 1523 1522 1520 1519 1517 1516 1515 1514 1512 1511 1510 1508 1507 1505 1503 1502 1501 1501 1501 1500 1500 1499 1498 1497 1495 1494 1492 1491 1489 1488 1487 1487 1486 1485 1484 1483 1482 1480 1479 1477 1475 1474 1472 1470 1469 1468 1466 1465 1463 1461 1460 1458 1456 1453 1451 1449 1446 1444 1442 1440 1438 1436 1434 1432 1430 1430 1429 1429 1428 1427 1427 1426 1425
1534 1533 1532 1531 1530 1529 1529 1528 1527 1525 1524 1522 1521 1519 1518 1517 1515 1514 1513 1512 1511 1509 1508 1507 1505 1504 1502 1501 1500 1500 1500 1499 1498 1497 1497 1496 1494 1493 1492 1490 1489 1488 1487 1486 1485 1484 1483 1482 1481 1479 1478 1476 1474 1473 1471 1470 1468 1467 1466 1464 1463 1461 1459 1457 1455 1453 1451 1449 1447 1444 1442 1440 1437 1435 1433 1432 1431 1430 1430 1429 1428 1427 1426 1425 1424
1533 1532 1531 1530 1530 1529 1527 1526 1525 1524 1522 1520 1519 1517 1516 1514 1513 1512 1511 1510 1509 1508 1507 1506 1504 1502 1501 1500 1499 1499 1498 1498 1497 1496 1495 1494 1493 1492 1491 1489 1488 1487 1486 1485 1484 1483 1482 1481 1480 1478 1477 1475 1474 1472 1471 1469 1468 1466 1465 1464 1462 1460 1459 1457 1455 1453 1452 1449 1447 1445 1442 1440 1437 1435 1434 1432 1431 1430 1430 1429 1428 1426 1424 1423 1422
1533 1531 1530 1530 1529 1527 1526 1525 1523 1521 1520 1518 1516 1515 1514 1513 1512 1510 1509 1508 1506 1506 1505 1504 1502 1501 1500 1499 1498 1498 1497 1496 1496 1495 1494 1493 1492 1491 1490 1489 1487 1486 1485 1484 1483 1482 1481 1480 1478 1477 1476 1474 1473 1471 1470 1468 1467 1466 1464 1463 1461 1460 1458 1457 1455 1453 1452 1450 1447 1445 1443 1440 1438 1436 1434 1433 1431 1431 1430 1429 1427 1426 1424 1423 1422
1532 1531 1530 1529 1527 1526 1525 1523 1521 1519 1518 1516 1514 1513 1512 1511 1509 1508 1507 1506 1505 1504 1503 1502 1500 1499 1498 1497 1497 1496 1495 1495 1494 1493 1492 1492 1491 1490 1489 1487 1486 1485 1484 1483 1482 1481 1480 1478 1477 1476 1475 1473 1472 1470 1469 1468 1466 1465 1464 1462 1461 1459 1458 1456 1455 1453 1451 1450 1447 1445 1443 1441 1438 1436 1434 1433 1432 1431 1430 1429 1427 1425 1424 1423 1422